SV4JYD-13 Weather Reports


time (UTC)temp
C
wind
direction
speed
KPH
gust
KPH
rain 1hr
cm
rain 24hr
cm
rain mn
cm
humidity
%
barometer
mb
20260906083347 29 126 4.8 4.8 0.00 0.00 0.00 51 1018.0
20260906081847 30 62 0.0 3.2 0.00 0.00 0.00 51 1018.0
20260906080341 30 62 0.0 3.2 0.00 0.00 0.00 40 1018.0
20260906074841 31 62 0.0 3.2 0.00 0.00 0.00 40 1018.0
20260906073341 27 301 6.4 8.0 0.00 0.00 0.00 43 1018.0
20260906071841 27 301 6.4 8.0 0.00 0.00 0.00 43 1018.0
20260906070340 28 301 6.4 8.0 0.00 0.00 0.00 43 1018.0
20260906064840 28 301 6.4 8.0 0.00 0.00 0.00 43 1018.0
20260906063340 28 301 6.4 8.0 0.00 0.00 0.00 44 1018.0
20260906061839 27 301 6.4 8.0 0.00 0.00 0.00 46 1017.0
20260906060339 28 301 6.4 8.0 0.00 0.00 0.00 44 1017.0
20260906054839 26 301 6.4 8.0 0.00 0.00 0.00 50 1017.0
20260906053339 24 299 6.4 8.0 0.00 0.00 0.00 62 1017.0
20260906051839 23 299 6.4 8.0 0.00 0.00 0.00 61 1017.0
20260906050338 23 299 6.4 8.0 0.00 0.00 0.00 59 1017.0
20260906044838 22 299 6.4 8.0 0.00 0.00 0.00 62 1017.0
20260906043338 22 291 6.4 8.0 0.00 0.00 0.00 66 1016.0
20260906041837 21 291 6.4 8.0 0.00 0.00 0.00 67 1016.0
20260906040337 21 291 6.4 8.0 0.00 0.00 0.00 62 1016.0
20260906034837 20 291 6.4 8.0 0.00 0.00 0.00 83 1016.0
20260906033337 20 291 6.4 8.0 0.00 0.00 0.00 10 1016.0
20260906031837 22 306 6.4 9.7 0.00 0.00 0.00 70 1016.0
20260906030336 22 289 6.4 8.0 0.00 0.00 0.00 65 1016.0
20260906024837 22 289 6.4 8.0 0.00 0.00 0.00 67 1016.0
20260906023335 22 289 6.4 8.0 0.00 0.00 0.00 67 1016.0
20260906021834 22 289 6.4 8.0 0.00 0.00 0.00 65 1016.0
20260906020334 22 289 6.4 9.7 0.00 0.00 0.00 61 1016.0
20260906014834 21 289 6.4 9.7 0.00 0.00 0.00 80 1016.0
20260906013328 21 290 6.4 8.0 0.00 0.00 0.00 80 1016.0
20260906011828 22 290 6.4 8.0 0.00 0.00 0.00 63 1016.0
20260906010328 21 290 6.4 8.0 0.00 0.00 0.00 10 1016.0
20260906004828 22 290 6.4 8.0 0.00 0.00 0.00 66 1016.0
20260906003327 22 290 6.4 8.0 0.00 0.00 0.00 67 1016.0
20260906001827 22 277 3.2 8.0 0.00 0.00 0.00 69 1016.0
20260906000327 23 277 4.8 8.0 0.00 0.00 0.00 67 1016.0
20260905233326 22 279 4.8 8.0 0.00 0.00 0.00 74 1016.0
20260905231826 22 279 4.8 8.0 0.00 0.00 0.00 74 1016.0
20260905230326 22 279 1.6 8.0 0.00 0.00 0.00 73 1017.0
20260905224826 23 279 3.2 8.0 0.00 0.00 0.00 71 1017.0
20260905223325 23 279 4.8 8.0 0.00 0.00 0.00 69 1017.0
20260905221825 23 248 1.6 4.8 0.00 0.00 0.00 68 1016.0
20260905220325 23 143 8.0 8.0 0.00 0.00 0.00 66 1017.0
20260905214825 23 143 8.0 8.0 0.00 0.00 0.00 64 1017.0
20260905213324 24 143 8.0 8.0 0.00 0.00 0.00 64 1017.0
20260905211824 24 143 8.0 8.0 0.00 0.00 0.00 64 1017.0
20260905210324 23 143 8.0 8.0 0.00 0.00 0.00 64 1017.0
20260905204824 24 143 8.0 8.0 0.00 0.00 0.00 63 1017.0
20260905203323 24 143 8.0 8.0 0.00 0.00 0.00 62 1017.0
20260905201823 25 143 8.0 8.0 0.00 0.00 0.00 61 1017.0
20260905200323 26 143 8.0 8.0 0.00 0.00 0.00 61 1017.0
20260905194817 26 143 8.0 8.0 0.00 0.00 0.00 64 1017.0
20260905193317 26 143 8.0 8.0 0.00 0.00 0.00 59 1017.0
20260905191817 26 143 8.0 8.0 0.00 0.00 0.00 60 1017.0
20260905190317 27 143 8.0 8.0 0.00 0.00 0.00 65 1017.0
20260905184816 26 143 8.0 8.0 0.00 0.00 0.00 74 1017.0
20260905183316 27 143 8.0 8.0 0.00 0.00 0.00 73 1017.0
20260905181817 27 143 8.0 8.0 0.00 0.00 0.00 70 1016.0
20260905180316 28 143 8.0 8.0 0.00 0.00 0.00 66 1016.0
20260905174815 28 143 8.0 8.0 0.00 0.00 0.00 60 1016.0
20260905173315 28 143 8.0 8.0 0.00 0.00 0.00 61 1017.0
20260905171815 28 143 8.0 8.0 0.00 0.00 0.00 63 1016.0
20260905170315 28 143 8.0 8.0 0.00 0.00 0.00 73 1016.0
20260905164815 30 146 8.0 8.0 0.00 0.00 0.00 56 1016.0
20260905161814 31 146 8.0 8.0 0.00 0.00 0.00 59 1016.0
20260905160314 30 146 8.0 8.0 0.00 0.00 0.00 72 1016.0
20260905154814 31 146 8.0 9.7 0.00 0.00 0.00 72 1016.0
20260905153313 31 140 8.0 8.0 0.00 0.00 0.00 53 1016.0
20260905151813 32 140 8.0 8.0 0.00 0.00 0.00 50 1016.0
20260905150313 31 140 8.0 8.0 0.00 0.00 0.00 49 1016.0
20260905144812 31 140 8.0 8.0 0.00 0.00 0.00 41 1016.0
20260905141811 32 140 8.0 8.0 0.00 0.00 0.00 42 1016.0
20260905140311 32 140 8.0 8.0 0.00 0.00 0.00 39 1016.0
20260905134810 32 140 8.0 8.0 0.00 0.00 0.00 40 1017.0
20260905133310 32 140 8.0 8.0 0.00 0.00 0.00 42 1016.0
20260905131810 32 140 8.0 8.0 0.00 0.00 0.00 40 1017.0
20260905130310 32 140 8.0 8.0 0.00 0.00 0.00 39 1017.0
20260905124809 32 140 8.0 8.0 0.00 0.00 0.00 37 1017.0
20260905123309 32 140 8.0 8.0 0.00 0.00 0.00 40 1017.0
20260905121809 32 140 8.0 8.0 0.00 0.00 0.00 39 1017.0
20260905120309 32 140 8.0 8.0 0.00 0.00 0.00 42 1017.0
20260905114808 32 140 8.0 8.0 0.00 0.00 0.00 43 1017.0
20260905113308 31 140 8.0 8.0 0.00 0.00 0.00 46 1017.0
20260905111808 31 140 8.0 8.0 0.00 0.00 0.00 49 1017.0
20260905110308 32 140 9.7 9.7 0.00 0.00 0.00 50 1018.0
20260905104807 32 140 9.7 9.7 0.00 0.00 0.00 35 1018.0
20260905103307 33 140 9.7 9.7 0.00 0.00 0.00 52 1018.0
20260905101807 31 173 1.6 6.4 0.00 0.00 0.00 60 1018.0
20260905100306 31 173 1.6 6.4 0.00 0.00 0.00 59 1018.0
20260905094806 31 173 1.6 6.4 0.00 0.00 0.00 57 1018.0
20260905093306 30 173 1.6 6.4 0.00 0.00 0.00 72 1019.0
20260905091806 30 173 1.6 6.4 0.00 0.00 0.00 73 1019.0
20260905090306 30 173 1.6 6.4 0.00 0.00 0.00 74 1019.0
20260905084805 30 173 3.2 6.4 0.00 0.00 0.00 75 1019.0